AKROBAT UKFF-UKFF

Flight info

Callsign AKROBAT
Flight time 0h 13m
Altitude 2000
Route DCT
Aircraft L29/M-VGD/A

Departure

Time 2026-04-19 20:47
Airport Simferopol International Airport (UKFF)

Arrival

Time 2026-04-19 21:00
Airport Simferopol International Airport (UKFF)
Time Latitude Longitude Altitude Speed Heading
2026-04-19 20:45 45.03462 33.98572 615 ft 0 kts 275°
2026-04-19 20:45 45.03558 33.96892 594 ft 0 kts 341°
2026-04-19 20:45 45.03581 33.96880 594 ft 16 kts 343°
2026-04-19 20:46 45.03888 33.96887 591 ft 74 kts 14°
2026-04-19 20:46 45.04596 33.97115 628 ft 127 kts 23°
2026-04-19 20:46 45.04497 33.98014 838 ft 138 kts 181°
2026-04-19 20:46 45.03397 33.97732 830 ft 183 kts 189°
2026-04-19 20:47 45.02112 33.98148 964 ft 206 kts 158°
2026-04-19 20:47 45.00650 33.98941 1141 ft 240 kts 160°
2026-04-19 20:47 44.99044 33.99810 1751 ft 252 kts 157°
2026-04-19 20:47 44.97370 34.00853 2241 ft 263 kts 154°
2026-04-19 20:48 44.95725 34.02007 2979 ft 264 kts 158°
2026-04-19 20:48 44.94018 34.03091 3241 ft 282 kts 147°
2026-04-19 20:48 44.92166 34.03620 3241 ft 302 kts 199°
2026-04-19 20:48 44.90163 34.02549 3716 ft 304 kts 201°
2026-04-19 20:49 44.88225 34.01433 4086 ft 309 kts 202°
2026-04-19 20:49 44.86261 34.00110 4270 ft 312 kts 202°
2026-04-19 20:49 44.84458 33.99543 4794 ft 251 kts 183°
2026-04-19 20:49 44.82704 33.99714 5441 ft 257 kts 170°
2026-04-19 20:50 44.81113 34.01020 4319 ft 324 kts 118°
2026-04-19 20:50 44.80991 34.04192 4210 ft 318 kts 105°
2026-04-19 20:50 44.81907 34.05371 4783 ft 227 kts 294°
2026-04-19 20:50 44.82085 34.04718 6197 ft 48 kts 71°
2026-04-19 20:51 44.81686 34.04375 3151 ft 241 kts 294°
2026-04-19 20:51 44.83217 34.03413 2764 ft 248 kts 303°
2026-04-19 20:51 44.83780 34.01562 3771 ft 193 kts 281°
2026-04-19 20:51 44.84014 33.99568 4117 ft 218 kts 278°
2026-04-19 20:52 44.84370 33.97588 4488 ft 197 kts 289°
2026-04-19 20:52 44.84979 33.95998 4505 ft 172 kts 297°
2026-04-19 20:52 44.84546 33.95691 3831 ft 164 kts 62°
2026-04-19 20:52 44.85596 33.95713 3618 ft 161 kts 348°
2026-04-19 20:53 44.86676 33.95366 3872 ft 166 kts 347°
2026-04-19 20:53 44.87888 33.95158 4049 ft 189 kts 358°
2026-04-19 20:53 44.89285 33.95034 4013 ft 204 kts 355°
2026-04-19 20:53 44.90706 33.94688 3403 ft 217 kts 336°
2026-04-19 20:54 44.91927 33.93728 3295 ft 172 kts 317°
2026-04-19 20:54 44.92767 33.92804 3213 ft 138 kts 335°
2026-04-19 20:54 44.93626 33.92565 3067 ft 114 kts 355°
2026-04-19 20:54 44.94526 33.92624 2311 ft 148 kts 15°
2026-04-19 20:55 44.95589 33.92830 2065 ft 160 kts 10°
2026-04-19 20:55 44.96628 33.93341 1959 ft 165 kts 26°
2026-04-19 20:55 44.97667 33.94025 1978 ft 159 kts 23°
2026-04-19 20:55 44.98548 33.94524 2144 ft 115 kts 20°
2026-04-19 20:56 44.99276 33.94885 1860 ft 109 kts 19°
2026-04-19 20:56 44.99957 33.95264 1628 ft 102 kts 23°
2026-04-19 20:56 45.00600 33.95614 1435 ft 104 kts 19°
2026-04-19 20:56 45.01321 33.95893 1192 ft 110 kts 15°
2026-04-19 20:57 45.02080 33.96187 1007 ft 109 kts 15°
2026-04-19 20:57 45.02798 33.96428 903 ft 104 kts 14°
2026-04-19 20:57 45.03537 33.96722 839 ft 114 kts 17°
2026-04-19 20:57 45.04310 33.97032 828 ft 114 kts 16°
2026-04-19 20:58 45.05101 33.97331 713 ft 124 kts 15°
2026-04-19 20:58 45.05689 33.96995 872 ft 99 kts 258°
2026-04-19 20:58 45.05123 33.96855 928 ft 113 kts 142°
2026-04-19 20:58 45.04945 33.97849 973 ft 123 kts 37°
2026-04-19 20:59 45.05709 33.97389 897 ft 132 kts 287°
2026-04-19 20:59 45.05867 33.96175 852 ft 123 kts 254°
2026-04-19 20:59 45.05188 33.95773 861 ft 105 kts 181°
2026-04-19 20:59 45.04514 33.95896 853 ft 98 kts 159°
2026-04-19 21:00 45.03841 33.95995 890 ft 95 kts 140°
2026-04-19 21:00 45.03772 33.96820 628 ft 100 kts 32°
2026-04-19 21:00 45.04393 33.97052 586 ft 83 kts
2026-04-19 21:00 45.04778 33.97192 585 ft 41 kts 18°
2026-04-19 21:01 45.05011 33.97275 584 ft 23 kts 17°
2026-04-19 21:01 45.05134 33.97325 582 ft 14 kts 11°
2026-04-19 21:01 45.05209 33.97340 582 ft 0 kts 11°
2026-04-19 21:02 45.05221 33.97351 582 ft 11 kts 29°
2026-04-19 21:02 45.05472 33.97438 580 ft 50 kts 11°
2026-04-19 21:02 45.05769 33.97556 579 ft 40 kts 25°
2026-04-19 21:02 45.05881 33.97697 580 ft 3 kts 63°
2026-04-19 21:03 45.05889 33.97712 580 ft 0 kts 54°
2026-04-19 21:03 45.05893 33.97710 580 ft 0 kts 330°
2026-04-19 21:03 45.05901 33.97718 580 ft 0 kts 79°
2026-04-19 21:03 45.05903 33.97728 580 ft 2 kts 67°
2026-04-19 21:04 45.05909 33.97762 580 ft 2 kts 100°
2026-04-19 21:04 45.05907 33.97773 580 ft 3 kts 106°
2026-04-19 21:04 45.05845 33.97843 582 ft 14 kts 183°
2026-04-19 21:04 45.05759 33.97816 583 ft 13 kts 193°
2026-04-19 21:05 45.05602 33.97772 584 ft 28 kts 189°
2026-04-19 21:05 45.05426 33.97737 583 ft 27 kts 189°
2026-04-19 21:05 45.05235 33.97678 584 ft 28 kts 193°
2026-04-19 21:05 45.05047 33.97624 587 ft 28 kts 191°
2026-04-19 21:06 45.04847 33.97555 588 ft 30 kts 193°
2026-04-19 21:06 45.04644 33.97484 588 ft 24 kts 198°
2026-04-19 21:06 45.04499 33.97430 590 ft 15 kts 194°
2026-04-19 21:06 45.04381 33.97394 590 ft 19 kts 192°
2026-04-19 21:07 45.04257 33.97360 591 ft 21 kts 193°
2026-04-19 21:07 45.04138 33.97316 592 ft 17 kts 194°
2026-04-19 21:07 45.04019 33.97279 594 ft 19 kts 194°
2026-04-19 21:07 45.03851 33.97217 598 ft 25 kts 193°
2026-04-19 21:08 45.03686 33.97172 598 ft 28 kts 190°
2026-04-19 21:08 45.03543 33.97118 597 ft 11 kts 205°
2026-04-19 21:08 45.03491 33.97096 596 ft 10 kts 179°
2026-04-19 21:08 45.03426 33.97100 596 ft 0 kts 173°
2026-04-19 21:09 45.03424 33.97100 596 ft 0 kts 184°
2026-04-19 21:09 45.03423 33.97100 596 ft 0 kts 191°
2026-04-19 21:12 45.03421 33.97102 596 ft 0 kts 155°
2026-04-19 21:12 45.03410 33.97104 595 ft 3 kts 184°
2026-04-19 21:12 45.03405 33.97108 595 ft 1 kts 151°
2026-04-19 21:13 45.03399 33.97110 595 ft 0 kts 154°
2026-04-19 21:13 45.03398 33.97111 595 ft 0 kts 139°
2026-04-19 21:14 45.03394 33.97115 595 ft 3 kts 139°
2026-04-19 21:14 45.03384 33.97129 595 ft 2 kts 215°
2026-04-19 21:14 45.03388 33.97089 595 ft 7 kts 285°
2026-04-19 21:15 45.03392 33.97055 594 ft 3 kts 276°
2026-04-19 21:15 45.03400 33.97003 593 ft 11 kts 282°
2026-04-19 21:15 45.03429 33.96932 592 ft 3 kts 333°
2026-04-19 21:15 45.03435 33.96933 592 ft 0 kts 20°
2026-04-19 21:16 45.03458 33.96927 592 ft 8 kts 348°
2026-04-19 21:16 45.03531 33.96895 593 ft 17 kts 341°
2026-04-19 21:16 45.03674 33.96835 594 ft 18 kts 318°
2026-04-19 21:16 45.03769 33.96831 593 ft 7 kts 34°
2026-04-19 21:17 45.03785 33.96846 592 ft 1 kts
2026-04-19 21:17 45.03913 33.96890 591 ft 51 kts 13°
2026-04-19 21:17 45.04475 33.97080 595 ft 112 kts 12°
2026-04-19 21:17 45.05418 33.97392 601 ft 170 kts 12°
2026-04-19 21:18 45.06694 33.97821 1153 ft 184 kts 10°
2026-04-19 21:18 45.06534 33.97596 1851 ft 171 kts 179°
2026-04-19 21:18 45.05000 33.97266 597 ft 270 kts 192°
2026-04-19 21:18 45.03158 33.96691 1277 ft 246 kts 178°
2026-04-19 21:19 45.03639 33.95797 1356 ft 224 kts 261°
2026-04-19 21:19 45.02625 33.95535 1348 ft 243 kts 95°
2026-04-19 21:19 45.04036 33.96972 616 ft 296 kts 11°
2026-04-19 21:19 45.05327 33.97278 2565 ft 184 kts 201°
2026-04-19 21:20 45.03865 33.96896 608 ft 289 kts 194°
2026-04-19 21:20 45.02477 33.96920 1066 ft 232 kts 52°
2026-04-19 21:20 45.03899 33.96804 860 ft 229 kts 12°
2026-04-19 21:20 45.05304 33.97351 914 ft 175 kts 14°
2026-04-19 21:21 45.06171 33.97001 1099 ft 100 kts
2026-04-19 21:21 45.06569 33.97595 779 ft 80 kts 33°
2026-04-19 21:21 45.06917 33.97856 1141 ft 125 kts 27°
2026-04-19 21:21 45.07057 33.99054 1136 ft 147 kts 137°
2026-04-19 21:22 45.05971 33.99154 1219 ft 177 kts 178°
2026-04-19 21:22 45.04693 33.99333 1476 ft 170 kts 190°
2026-04-19 21:22 45.03730 33.99507 1645 ft 110 kts 168°
2026-04-19 21:22 45.03081 33.99663 1478 ft 85 kts 169°
2026-04-19 21:23 45.02515 33.99768 1306 ft 84 kts 177°
2026-04-19 21:23 45.01893 33.99549 1283 ft 96 kts 207°
2026-04-19 21:23 45.01463 33.98906 1240 ft 89 kts 253°
2026-04-19 21:23 45.01527 33.98080 1095 ft 86 kts 297°
2026-04-19 21:24 45.01945 33.97400 1096 ft 97 kts 322°
2026-04-19 21:24 45.02497 33.96917 1046 ft 93 kts 332°
2026-04-19 21:24 45.03129 33.96723 798 ft 101 kts
2026-04-19 21:24 45.03832 33.96890 599 ft 96 kts 12°
2026-04-19 21:25 45.04382 33.97075 586 ft 65 kts 14°
2026-04-19 21:25 45.04856 33.97229 585 ft 91 kts 12°
2026-04-19 21:25 45.05686 33.97530 632 ft 149 kts 23°
2026-04-19 21:25 45.06751 33.98278 935 ft 189 kts 27°
2026-04-19 21:26 45.07993 33.99073 1551 ft 210 kts 24°
2026-04-19 21:26 45.09283 34.00054 2284 ft 222 kts 33°
2026-04-19 21:26 45.10647 34.01270 2894 ft 238 kts 32°
2026-04-19 21:26 45.12024 34.02674 3543 ft 251 kts 36°
2026-04-19 21:27 45.13507 34.04147 3811 ft 274 kts 32°
2026-04-19 21:27 45.15193 34.05646 3996 ft 287 kts 34°
2026-04-19 21:27 45.16852 34.07259 4326 ft 299 kts 34°
2026-04-19 21:27 45.18584 34.08981 4223 ft 321 kts 42°
2026-04-19 21:28 45.20128 34.10890 4488 ft 265 kts 39°
2026-04-19 21:28 45.21331 34.12325 4929 ft 170 kts 10°
2026-04-19 21:28 45.21897 34.11325 4599 ft 158 kts 296°
2026-04-19 21:28 45.22305 34.09749 4103 ft 178 kts 288°
2026-04-19 21:29 45.22721 34.08118 3703 ft 190 kts 282°
2026-04-19 21:29 45.22811 34.06303 3512 ft 190 kts 254°
2026-04-19 21:29 45.21893 34.04850 3128 ft 210 kts 209°
2026-04-19 21:29 45.20535 34.04157 3440 ft 205 kts 192°
2026-04-19 21:30 45.19168 34.03547 3750 ft 219 kts 203°
2026-04-19 21:30 45.17682 34.02617 4027 ft 249 kts 205°
2026-04-19 21:30 45.16060 34.01528 4094 ft 264 kts 206°
2026-04-19 21:30 45.14543 34.00525 3499 ft 221 kts 207°
2026-04-19 21:31 45.13283 33.99812 2878 ft 176 kts 194°
2026-04-19 21:31 45.12143 33.99461 2263 ft 163 kts 191°
2026-04-19 21:31 45.11093 33.99172 1724 ft 151 kts 195°
2026-04-19 21:31 45.10001 33.98888 1272 ft 179 kts 189°
2026-04-19 21:32 45.08705 33.98524 863 ft 186 kts 193°
2026-04-19 21:32 45.07587 33.98140 678 ft 143 kts 193°
2026-04-19 21:32 45.06798 33.97864 597 ft 95 kts 193°
2026-04-19 21:32 45.06270 33.97683 577 ft 63 kts 194°
2026-04-19 21:33 45.05876 33.97559 579 ft 53 kts 191°
2026-04-19 21:33 45.05541 33.97449 580 ft 45 kts 192°
2026-04-19 21:33 45.05250 33.97359 582 ft 40 kts 192°
2026-04-19 21:33 45.04986 33.97282 585 ft 36 kts 191°
2026-04-19 21:34 45.04768 33.97195 585 ft 31 kts 195°
2026-04-19 21:34 45.04558 33.97115 585 ft 30 kts 194°
2026-04-19 21:34 45.04362 33.97045 586 ft 26 kts 194°
2026-04-19 21:34 45.04196 33.97000 587 ft 22 kts 189°
2026-04-19 21:35 45.04057 33.96958 589 ft 20 kts 191°
2026-04-19 21:35 45.03941 33.96922 591 ft 16 kts 194°
2026-04-19 21:35 45.03814 33.96883 592 ft 19 kts 179°
2026-04-19 21:35 45.03684 33.96901 594 ft 17 kts 178°
2026-04-19 21:36 45.03585 33.96930 595 ft 8 kts 145°
2026-04-19 21:36 45.03571 33.96949 595 ft 1 kts 111°
2026-04-19 21:36 45.03545 33.97044 595 ft 12 kts 112°
2026-04-19 21:36 45.03511 33.97171 597 ft 17 kts 109°
2026-04-19 21:37 45.03471 33.97319 599 ft 11 kts 122°
2026-04-19 21:37 45.03442 33.97365 599 ft 4 kts 180°
2026-04-19 21:37 45.03438 33.97364 599 ft 0 kts 186°